Regional Weather Roundup
Issued by NWS

Home | Current Version | Previous Version | Graphics & Text | Print | Product List | Glossary On
Versions: 1 2 3 4 5 6 7 8 9 10 11 12 13 14 15 16 17 18 19 20 21 22 23 24 25 26 27
000
ASUS45 KBOU 190407
RWRCO

WEATHER ROUNDUP FOR COLORADO
NATIONAL WEATHER SERVICE DENVER/BOULDER CO
1000 PM MDT WED OCT 18 2017

NOTE: "FAIR" INDICATES FEW OR NO CLOUDS BELOW 12000 FEET WITH NO
SIGNIFICANT WEATHER AND/OR OBSTRUCTIONS TO VISIBILITY.

COZ001>005-013-030-031-190500-
...NORTHWEST COLORADO...

CITY           SKY/WX    TMP DP  RH WIND       PRES   REMARKS
CRAIG          FAIR      36  19  50 E3        30.21R
HAYDEN         FAIR      44  15  31 E13       30.23S
MEEKER         FAIR      46  18  32 SE7       30.21S
RABBIT EARS PA FAIR      43   9  24 W7        30.42F
STEAMBOAT SPGS FAIR      44  13  29 CALM      30.24S
WALDEN         NOT AVBL
$$

COZ006>008-011-190500-
...WEST CENTRAL VALLEYS...

CITY           SKY/WX    TMP DP  RH WIND       PRES   REMARKS
GRAND JUNCTION FAIR      52  19  27 NE7       30.12S
MONTROSE       FAIR      47  21  35 SE12      30.20S
EAGLE          FAIR      40  16  37 E3        30.26R
RIFLE          FAIR      47  18  31 SE6       30.18R
DELTA          FAIR      53  14  20 E7        30.17R
NUCLA          NOT AVBL
$$

COZ017>023-064>068-190500-
...SOUTHWEST COLORADO...

CITY           SKY/WX    TMP DP  RH WIND       PRES   REMARKS
DURANGO        FAIR      42  21  43 E3        30.22S
CORTEZ         FAIR      48  26  42 E6        30.18S
PAGOSA SPRINGS FAIR      44  14  30 CALM      30.30R
TELLURIDE      NOT AVBL
WOLF CREEK PAS FAIR      37  10  32 SW9       30.57S
$$

COZ009-010-012-014-032>034-037-058>063-190500-
...CENTRAL COLORADO...

CITY           SKY/WX    TMP DP  RH WIND       PRES   REMARKS
ASPEN          FAIR      42  14  32 S8        30.30S
BUENA VISTA    FAIR      38  13  35 W5        30.32R
COPPER MTN     FAIR      45  -2  14 CALM      30.53S
BERTHOUD PASS  FAIR      36  28  75 W12       30.55S
COTTONWOOD PAS FAIR      55  -2   9 N3        30.41S
GUNNISON       FAIR      37  13  37 CALM      30.32R
KREMMLING      FAIR      37  18  44 CALM      30.30R
LEADVILLE      FAIR      29   7  39 NE3       30.40S
MONARCH PASS   FAIR      41 -17   8 E5        30.63R
SALIDA         NOT AVBL
SUNLIGHT       FAIR      43   0  16 E3        30.48S
WILKERSON PASS FAIR      43  -4  14 S13G18    30.51F
$$

COZ069>075-190500-
...SAN LUIS VALLEY/SANGRE DE CRISTO MOUNTAINS...

CITY           SKY/WX    TMP DP  RH WIND       PRES   REMARKS
ALAMOSA        FAIR      37  14  38 S8        30.29R
DEL NORTE      FAIR      39  15  37 W12       30.32R
LA VETA PASS   FAIR      45  10  24 E6        30.54F
SAGUACHE       FAIR      43  12  28 NW10      30.31S
$$

COZ035-036-038>040-190500-
...NORTHERN COLORADO FRONT RANGE...

CITY           SKY/WX    TMP DP  RH WIND       PRES   REMARKS
DENVER INTL AP FAIR      55  20  25 S16       30.15R
DMNS CITY PARK   N/A     54  21  28 E12       30.14S
AURORA         PTCLDY    52  20  28 S9        30.16S
FRONT RANGE AP FAIR      55  23  28 S17       30.16S
ERIE MUNI ARPT FAIR      44  28  54 CALM      30.18S
BOULDER MUN AP FAIR      50  27  40 CALM      30.13S
CENTENNIAL     FAIR      57  18  21 S12       30.17S
BROOMFIELD     PTCLDY    55  19  24 CALM      30.15S
FORT COLLINS   FAIR      53  27  36 NE9       30.13F
LONGMONT       FAIR      50  25  38 NW5       30.14F
$$

COZ041-046-047-076>085-087-088-190500-
...PIKES PEAK/PALMER DIVIDE AND SOUTHERN FOOTHILLS...

CITY           SKY/WX    TMP DP  RH WIND       PRES   REMARKS
COLO. SPRINGS  FAIR      55  22  27 N3        30.24R
A. F. ACADEMY  FAIR      47  17  30 NE3       30.24R
SCHRIEVER AFB  FAIR      53  20  28 MISG      30.23R
CHEYENNE MTN   NOT AVBL
ELLICOTT       FAIR     N/A N/A N/A E13       30.21R
FALCON         FAIR      51  20  29 SW5       30.27R
FORT CARSON    FAIR      54  23  30 NW6       30.20S
LIMON          FAIR      41  25  53 CALM      30.19R
MONUMENT HILL  FAIR      46  21  36 S13       30.26S
CANON CITY     CLEAR     52  19  28 W9        30.17R
WALSENBURG     FAIR      48  19  32 W3        30.21S
TRINIDAD       FAIR      49  25  39 W10       30.19S HAZE
$$

COZ042>045-048>051-090-091-190500-
...NORTHEAST COLORADO...

CITY           SKY/WX    TMP DP  RH WIND       PRES   REMARKS
GREELEY ARPT   FAIR      43  29  57 N3        30.13R
AKRON          FAIR      51  27  39 SE13      30.14S
BURLINGTON     FAIR      49  31  49 E10       30.14S
WRAY           FAIR      50  32  50 SE5       30.12S
YUMA           FAIR      43  30  61 S6        30.12F
STERLING       NOT AVBL
HOLYOKE        FAIR      46  32  57 SE8       30.11S
FORT MORGAN    FAIR      48  23  37 E6        30.13S
$$

COZ086-089-092>099-190500-
...SOUTHEAST COLORADO...

CITY           SKY/WX    TMP DP  RH WIND       PRES   REMARKS
PUEBLO         FAIR      52  29  41 CALM      30.13R
LA JUNTA       FAIR      51  32  48 NE9       30.11R
LAMAR          FAIR      45  29  53 N7        30.09R
SPRINGFIELD      N/A     44  35  70 CALM      30.13R
$$




USA.gov is the U.S. government's official web portal to all federal, state and local government web resources and services.